Regional Weather Roundup
Issued by NWS Cleveland, OH

Home | Current Version | Previous Version | Graphics & Text | Print | Product List | Glossary On
Versions: 1 2 3 4 5 6 7 8 9 10 11 12 13 14 15 16 17 18 19 20 21 22 23 24 25 26 27 28 29 30 31 32 33 34 35 36 37 38 39 40 41 42 43 44 45 46 47 48 49 50
000
ASUS41 KCLE 230502
RWRCLE
OHIO REGIONAL WEATHER ROUNDUP
NATIONAL WEATHER SERVICE CLEVELAND, OH
1200 AM EST THU NOV 23 2017

NOTE: "FAIR" INDICATES FEW OR NO CLOUDS BELOW 12,000 FEET WITH NO
SIGNIFICANT WEATHER AND/OR OBSTRUCTIONS TO VISIBILITY.

OHZ001>008-015>018-024>027-034-035-043-044-230600-
   NORTHWEST OHIO

CITY           SKY/WX    TMP DP  RH WIND       PRES   REMARKS
DEFIANCE       MOCLDY    28  21  75 S6        30.21F WCI  22
FINDLAY        PTCLDY    25  19  78 S7        30.21F WCI  17
TOLEDO EXPRESS CLOUDY    29  22  75 S6        30.21F WCI  23
TOLEDO EXEC    CLOUDY    26  22  84 S5        30.22F WCI  20
LIMA           CLOUDY    25  22  88 S6        30.21F WCI  18
$$

OHZ009>014-019>023-028>033-038-089-230600-
   NORTHEAST OHIO

CITY           SKY/WX    TMP DP  RH WIND       PRES   REMARKS
CLE-HOPKINS    CLOUDY    30  19  63 SW8       30.25S WCI  22
CLE-LAKEFRONT  CLOUDY    32  18  56 SW12      30.22F WCI  23
CUY CO. ARPT   NOT AVBL
LORAIN-ELYRIA  CLOUDY    26  16  65 SW7       30.23F WCI  18
ASHTABULA      CLOUDY    31  23  72 SW5       30.21S WCI  26
AKRON-CANTON   CLOUDY    29  17  61 SW3       30.21F
WOOSTER        CLOUDY    22  19  89 CALM      30.22F
MANSFIELD      CLOUDY    24  18  77 SE5       30.21F WCI  18
YOUNGSTOWN     CLOUDY    30  21  69 W5        30.19F WCI  25
$$

OHZ042-051>053-060>062-070>072-077>081-230600-
  SOUTHWEST OHIO

CITY           SKY/WX    TMP DP  RH WIND       PRES   REMARKS
CINC-COVINGTON CLOUDY    30  24  78 E3        30.23S
CINC-LUNKEN    CLOUDY    24  23  96 CALM      30.27F FOG
HAMILTON       CLOUDY    23  21  92 CALM      30.27S
DAYTON         CLOUDY    26  22  84 SE7       30.23F WCI  18
WRIGHT-PAT AFB CLOUDY    25  20  83 SE3       30.23F
DAYTON GENERAL CLOUDY    25  20  81 E5        30.23F WCI  19
WILMINGTON     CLOUDY    22  21  96 CALM      30.23F
$$

OHZ036-037-039>041-045>050-054>059-063>069-073>076-082>088-230600-
  CENTRAL AND SOUTHEAST OHIO

CITY           SKY/WX    TMP DP  RH WIND       PRES   REMARKS
COLUMBUS       CLEAR     28  20  71 CALM      30.24F
OSU AIRPORT    CLOUDY    26  20  77 CALM      30.24F
BOLTON FIELD   NOT AVBL
RICKENBACK AFB CLEAR     25  20  82 CALM      30.24F
NEWARK         CLOUDY    25  19  78 CALM      30.23F
MARION         CLOUDY    24  19  81 S5        30.22F WCI  18
LANCASTER      CLOUDY    21  19  92 CALM      30.24S
ZANESVILLE     CLOUDY    25  20  81 CALM      30.23S
NEW PHILLY     NOT AVBL
$$



USA.gov is the U.S. government's official web portal to all federal, state and local government web resources and services.